Starlink 32283

operational
NORAD ID: 62425 Int'l Des: 2024-249 Owner: SPXS Country: US Constellation: starlink
LEOCIRCULAR

About Starlink 32283

Description loading...

Live Position

Loading 3D Globe...

Upcoming Passes

Altitude History

Altitude vs Time

uPlot chart will show altitude changes over time

Two-Line Element Set

1 62425U 24249S 25258.18515915 .00056626 00000-0 20485-2 0 9993
2 62425 42.9982 221.6637 0002460 278.9151 81.1422 15.27626447 41015
Epoch: Sep 15, 2025 • Age: 12 hours

Current Status

Altitude 485.3 km
Velocity 7.62 km/s
Sub-Earth Point -14.65°S, 175.58°E
Launch Date Dec 23, 2024
Age 0.7 years
Type internet

Technical Details

Classification Payload
Mass 730.00 kg
Dry Mass 700.00 kg
Total Mass 730.00 kg
Length 0.30 m
Diameter 4.10 m
Span 29.00 m
Shape Box + pan
Manufacturer SPXS
Bus Type Starlink V2M
Phase Status In Orbit
Owner/State SPXS/US

Large Constellations

Loading constellations...